Radiation Dose at Monitoring Post of Fukushima Daini Nuclear Power Station
Date,Time,MP-1(microSv/h),MP-2(microSv/h),MP-3(microSv/h),MP-4(microSv/h),MP-5(microSv/h),MP-6(microSv/h),MP-7(microSv/h),Wind Direction,Wind Velocity(m/s),Rain
2023/06/15,00:00,0.138,0.127,0.199,0.191,0.205,0.111,0.074,northwest,4.3,Yes
2023/06/15,00:10,0.139,0.127,0.197,0.190,0.205,0.111,0.074,northwest,4.3,Yes
2023/06/15,00:20,0.140,0.126,0.199,0.192,0.204,0.113,0.074,northwest,5.1,Yes
2023/06/15,00:30,0.139,0.127,0.198,0.191,0.205,0.111,0.074,north-northwest,5.5,Yes
2023/06/15,00:40,0.140,0.128,0.199,0.191,0.204,0.111,0.074,northwest,5.8,Yes
2023/06/15,00:50,0.139,0.126,0.198,0.191,0.205,0.111,0.073,northwest,5.9,No
2023/06/15,01:00,0.138,0.127,0.198,0.191,0.203,0.111,0.073,north-northwest,5.8,No
2023/06/15,01:10,0.140,0.126,0.198,0.191,0.205,0.111,0.073,northwest,5.9,No
2023/06/15,01:20,0.138,0.126,0.197,0.189,0.203,0.110,0.073,northwest,5.4,No
2023/06/15,01:30,0.139,0.126,0.198,0.192,0.203,0.111,0.073,north-northwest,6.0,No
2023/06/15,01:40,0.139,0.126,0.197,0.191,0.204,0.111,0.073,north-northwest,5.7,No
2023/06/15,01:50,0.138,0.127,0.198,0.190,0.202,0.111,0.072,north-northwest,6.0,No
2023/06/15,02:00,0.139,0.126,0.198,0.191,0.204,0.111,0.072,north-northwest,4.9,No
2023/06/15,02:10,0.138,0.126,0.198,0.190,0.203,0.110,0.072,north-northwest,5.6,No
2023/06/15,02:20,0.139,0.125,0.198,0.192,0.203,0.111,0.072,north-northwest,5.3,No
2023/06/15,02:30,0.138,0.126,0.197,0.191,0.204,0.110,0.072,north-northwest,4.0,No
2023/06/15,02:40,0.139,0.125,0.199,0.191,0.202,0.110,0.073,north-northwest,2.7,No
2023/06/15,02:50,0.139,0.125,0.196,0.191,0.205,0.110,0.073,north-northwest,3.3,No
2023/06/15,03:00,0.137,0.126,0.198,0.191,0.202,0.110,0.073,north-northwest,3.6,No
2023/06/15,03:10,0.138,0.125,0.197,0.192,0.203,0.111,0.072,north-northwest,4.6,No
2023/06/15,03:20,0.139,0.126,0.197,0.190,0.204,0.110,0.072,north-northwest,4.7,No
2023/06/15,03:30,0.137,0.126,0.197,0.191,0.202,0.110,0.072,north-northwest,4.6,No
2023/06/15,03:40,0.139,0.126,0.198,0.192,0.205,0.111,0.072,north-northwest,4.5,No
2023/06/15,03:50,0.137,0.126,0.198,0.190,0.203,0.111,0.072,north-northwest,4.7,Yes
2023/06/15,04:00,0.140,0.126,0.197,0.192,0.204,0.111,0.072,north-northwest,5.1,Yes
2023/06/15,04:10,0.139,0.126,0.197,0.191,0.204,0.111,0.072,north-northwest,5.1,Yes
2023/06/15,04:20,0.139,0.126,0.199,0.191,0.204,0.110,0.072,north-northwest,3.7,Yes
2023/06/15,04:30,0.140,0.127,0.197,0.191,0.205,0.111,0.072,north-northwest,3.8,No
2023/06/15,04:40,0.138,0.127,0.198,0.190,0.203,0.111,0.073,north-northwest,4.2,Yes
2023/06/15,04:50,0.140,0.126,0.197,0.193,0.204,0.110,0.072,north-northwest,5.2,No
2023/06/15,05:00,0.138,0.126,0.199,0.191,0.205,0.111,0.072,north,4.9,No
2023/06/15,05:10,0.139,0.126,0.198,0.192,0.203,0.111,0.072,north-northwest,4.9,No
2023/06/15,05:20,0.140,0.126,0.198,0.191,0.205,0.110,0.072,north-northwest,4.8,No
2023/06/15,05:30,0.138,0.126,0.199,0.190,0.203,0.112,0.072,north-northwest,4.9,No
2023/06/15,05:40,0.139,0.126,0.197,0.191,0.204,0.111,0.073,north-northwest,4.7,No
2023/06/15,05:50,0.139,0.126,0.199,0.191,0.205,0.110,0.073,north-northwest,4.7,Yes
2023/06/15,06:00,0.140,0.126,0.198,0.192,0.203,0.111,0.072,north-northwest,5.7,Yes
2023/06/15,06:10,0.140,0.126,0.199,0.192,0.205,0.110,0.073,north-northwest,5.5,Yes
2023/06/15,06:20,0.139,0.127,0.199,0.191,0.204,0.111,0.073,north-northwest,5.5,Yes
2023/06/15,06:30,0.140,0.128,0.199,0.193,0.206,0.112,0.074,north-northwest,6.1,Yes
2023/06/15,06:40,0.138,0.127,0.200,0.192,0.205,0.112,0.073,north-northwest,5.9,Yes
2023/06/15,06:50,0.139,0.127,0.199,0.192,0.204,0.112,0.074,north-northwest,5.1,Yes
2023/06/15,07:00,0.140,0.127,0.200,0.192,0.206,0.111,0.073,north-northwest,5.4,Yes
2023/06/15,07:10,0.139,0.126,0.198,0.191,0.202,0.112,0.073,north-northwest,5.9,No
2023/06/15,07:20,0.140,0.127,0.198,0.192,0.206,0.112,0.073,north-northwest,5.3,No
2023/06/15,07:30,0.139,0.126,0.199,0.190,0.204,0.111,0.072,north-northwest,5.9,No
2023/06/15,07:40,0.139,0.126,0.197,0.192,0.203,0.111,0.073,north-northwest,4.4,No
2023/06/15,07:50,0.142,0.127,0.200,0.192,0.206,0.111,0.073,northwest,3.8,No
2023/06/15,08:00,0.139,0.126,0.200,0.190,0.203,0.111,0.072,north-northwest,4.6,No
2023/06/15,08:10,0.140,0.127,0.198,0.191,0.203,0.111,0.073,north,4.7,No
2023/06/15,08:20,0.139,0.126,0.200,0.192,0.205,0.112,0.072,north-northwest,5.1,No
2023/06/15,08:30,0.138,0.126,0.199,0.190,0.203,0.110,0.073,north-northwest,5.1,Yes
2023/06/15,08:40,0.140,0.127,0.199,0.194,0.203,0.110,0.073,north-northwest,5.4,Yes
2023/06/15,08:50,0.139,0.126,0.198,0.191,0.206,0.111,0.073,north-northwest,6.3,Yes
2023/06/15,09:00,0.138,0.126,0.198,0.191,0.202,0.111,0.073,north-northwest,4.9,Yes
2023/06/15,09:10,0.140,0.127,0.200,0.191,0.206,0.111,0.073,north,4.8,Yes
2023/06/15,09:20,0.139,0.127,0.199,0.191,0.205,0.112,0.073,north,4.2,Yes
2023/06/15,09:30,0.141,0.128,0.200,0.193,0.204,0.112,0.074,north-northwest,4.4,Yes
2023/06/15,09:40,0.141,0.127,0.200,0.193,0.206,0.113,0.074,north-northwest,5.4,Yes
2023/06/15,09:50,0.140,0.127,0.199,0.192,0.203,0.112,0.074,north-northwest,5.2,Yes
2023/06/15,10:00,0.141,0.127,0.202,0.195,0.207,0.113,0.074,north-northwest,4.5,Yes
2023/06/15,10:10,0.139,0.128,0.200,0.192,0.204,0.114,0.074,north-northwest,6.0,Yes
2023/06/15,10:20,0.141,0.128,0.202,0.193,0.206,0.113,0.075,north-northwest,5.0,Yes
2023/06/15,10:30,0.141,0.128,0.200,0.193,0.207,0.115,0.075,north-northwest,4.9,Yes
2023/06/15,10:40,0.141,0.130,0.200,0.194,0.204,0.115,0.075,north-northwest,4.8,Yes
2023/06/15,10:50,0.141,0.128,0.201,0.193,0.206,0.113,0.075,northwest,5.2,Yes
2023/06/15,11:00,0.140,0.129,0.200,0.192,0.205,0.114,0.075,northwest,4.6,Yes
2023/06/15,11:10,0.142,0.129,0.201,0.194,0.206,0.113,0.075,north-northwest,5.3,Yes
2023/06/15,11:20,0.140,0.129,0.199,0.192,0.206,0.113,0.075,north-northwest,5.3,Yes
2023/06/15,11:30,0.141,0.128,0.200,0.192,0.203,0.113,0.075,north-northwest,5.5,Yes
2023/06/15,11:40,0.141,0.128,0.199,0.192,0.206,0.112,0.075,north-northwest,5.2,Yes
2023/06/15,11:50,0.140,0.129,0.199,0.191,0.204,0.113,0.075,north-northwest,5.3,Yes
2023/06/15,12:00,0.142,0.127,0.199,0.192,0.205,0.113,0.075,north-northwest,3.8,Yes
2023/06/15,12:10,0.139,0.128,0.199,0.191,0.207,0.112,0.075,north,4.3,Yes
2023/06/15,12:20,0.139,0.127,0.199,0.191,0.203,0.112,0.074,north,5.6,Yes
2023/06/15,12:30,0.141,0.127,0.200,0.194,0.204,0.112,0.075,north,5.3,Yes
2023/06/15,12:40,0.140,0.129,0.199,0.191,0.204,0.112,0.074,north,5.3,No
2023/06/15,12:50,0.140,0.128,0.200,0.192,0.203,0.113,0.073,north,5.2,No
2023/06/15,13:00,0.140,0.127,0.199,0.192,0.206,0.111,0.073,north,4.5,No
2023/06/15,13:10,0.140,0.126,0.198,0.190,0.204,0.111,0.073,north,4.8,Yes
2023/06/15,13:20,0.140,0.126,0.200,0.192,0.203,0.111,0.073,north,4.1,No
2023/06/15,13:30,0.139,0.127,0.198,0.189,0.203,0.111,0.073,north-northwest,4.4,No
2023/06/15,13:40,0.140,0.126,0.199,0.191,0.203,0.112,0.073,north-northwest,4.0,No
2023/06/15,13:50,0.140,0.127,0.198,0.190,0.204,0.110,0.073,north-northwest,4.2,No
2023/06/15,14:00,0.139,0.126,0.197,0.190,0.202,0.110,0.072,north-northwest,4.0,No
2023/06/15,14:10,0.141,0.127,0.199,0.191,0.203,0.111,0.073,north-northwest,3.4,No
2023/06/15,14:20,0.138,0.126,0.198,0.189,0.205,0.110,0.072,north-northwest,3.1,No
2023/06/15,14:30,0.140,0.126,0.198,0.190,0.203,0.110,0.072,north-northwest,3.2,No
2023/06/15,14:40,0.139,0.127,0.200,0.191,0.203,0.110,0.073,north-northwest,2.4,No
2023/06/15,14:50,0.138,0.127,0.198,0.190,0.204,0.111,0.072,north-northwest,2.6,No
2023/06/15,15:00,0.140,0.125,0.198,0.191,0.203,0.111,0.072,north,2.0,No
2023/06/15,15:10,0.140,0.128,0.199,0.191,0.203,0.111,0.073,north-northwest,2.4,No
2023/06/15,15:20,0.139,0.126,0.196,0.189,0.204,0.111,0.072,north,2.4,No
2023/06/15,15:30,0.140,0.127,0.199,0.190,0.202,0.110,0.072,north,2.3,No
2023/06/15,15:40,0.138,0.127,0.199,0.191,0.206,0.111,0.073,north,2.6,No
2023/06/15,15:50,0.139,0.126,0.198,0.190,0.203,0.111,0.072,north-northwest,3.1,No
2023/06/15,16:00,0.140,0.127,0.199,0.192,0.204,0.111,0.072,north-northwest,3.2,No
2023/06/15,16:10,0.139,0.125,0.199,0.191,0.205,0.112,0.073,north-northwest,2.9,Yes
2023/06/15,16:20,0.140,0.127,0.199,0.191,0.203,0.110,0.073,north-northwest,2.8,No
2023/06/15,16:30,0.139,0.125,0.199,0.191,0.204,0.110,0.072,northwest,3.7,No
2023/06/15,16:40,0.139,0.127,0.197,0.190,0.205,0.111,0.072,north-northwest,3.1,No
2023/06/15,16:50,0.141,0.127,0.199,0.191,0.203,0.111,0.072,north-northwest,3.2,Yes
2023/06/15,17:00,0.139,0.125,0.198,0.191,0.205,0.111,0.073,north-northwest,3.0,Yes
2023/06/15,17:10,0.140,0.126,0.199,0.190,0.205,0.112,0.073,north-northwest,2.8,Yes
2023/06/15,17:20,0.140,0.127,0.199,0.192,0.203,0.111,0.073,north-northwest,2.3,Yes
2023/06/15,17:30,0.139,0.126,0.198,0.193,0.206,0.111,0.074,north-northwest,2.3,Yes
2023/06/15,17:40,0.140,0.127,0.200,0.192,0.205,0.113,0.074,north-northwest,2.3,Yes
2023/06/15,17:50,0.141,0.127,0.201,0.194,0.205,0.112,0.074,north-northwest,2.5,Yes
2023/06/15,18:00,0.141,0.127,0.199,0.191,0.207,0.114,0.074,north,1.9,Yes
2023/06/15,18:10,0.141,0.128,0.201,0.193,0.203,0.112,0.074,north-northeast,2.5,Yes
2023/06/15,18:20,0.140,0.128,0.199,0.192,0.206,0.112,0.074,north,3.8,Yes
2023/06/15,18:30,0.141,0.127,0.200,0.192,0.205,0.112,0.073,north,3.1,Yes
2023/06/15,18:40,0.142,0.127,0.200,0.193,0.205,0.111,0.073,north,3.3,Yes
2023/06/15,18:50,0.139,0.128,0.199,0.191,0.205,0.111,0.074,north-northwest,2.8,Yes
2023/06/15,19:00,0.141,0.128,0.200,0.192,0.204,0.112,0.073,north-northwest,3.2,Yes
2023/06/15,19:10,0.141,0.128,0.200,0.192,0.206,0.112,0.074,north-northwest,3.4,Yes
2023/06/15,19:20,0.141,0.128,0.202,0.192,0.205,0.114,0.074,north-northwest,3.6,Yes
2023/06/15,19:30,0.143,0.129,0.201,0.195,0.205,0.114,0.075,north-northwest,3.4,Yes
2023/06/15,19:40,0.141,0.131,0.203,0.192,0.207,0.114,0.075,north-northwest,3.4,Yes
2023/06/15,19:50,0.142,0.128,0.201,0.194,0.204,0.114,0.075,north-northwest,3.3,Yes
2023/06/15,20:00,0.143,0.129,0.202,0.194,0.207,0.114,0.075,north-northwest,2.9,Yes
2023/06/15,20:10,0.141,0.128,0.201,0.193,0.206,0.114,0.075,north-northwest,3.0,Yes
2023/06/15,20:20,0.142,0.130,0.201,0.194,0.207,0.114,0.075,north-northwest,2.3,Yes
2023/06/15,20:30,0.140,0.129,0.202,0.193,0.206,0.114,0.075,north,2.6,Yes
2023/06/15,20:40,0.143,0.128,0.200,0.194,0.205,0.113,0.075,north,2.5,Yes
2023/06/15,20:50,0.141,0.128,0.202,0.192,0.207,0.114,0.076,north-northwest,3.3,Yes
2023/06/15,21:00,0.141,0.129,0.200,0.195,0.205,0.113,0.075,north,3.8,Yes
2023/06/15,21:10,0.141,0.128,0.201,0.192,0.206,0.114,0.075,north-northwest,3.4,Yes
2023/06/15,21:20,0.140,0.128,0.200,0.193,0.206,0.114,0.074,north-northwest,3.4,Yes
2023/06/15,21:30,0.142,0.128,0.200,0.193,0.205,0.113,0.075,north-northwest,3.5,Yes
2023/06/15,21:40,0.140,0.128,0.201,0.192,0.208,0.114,0.075,north-northwest,3.5,Yes
2023/06/15,21:50,0.142,0.127,0.202,0.194,0.204,0.113,0.075,north-northwest,3.5,Yes
2023/06/15,22:00,0.141,0.129,0.201,0.192,0.206,0.114,0.076,northwest,4.1,Yes
2023/06/15,22:10,0.142,0.128,0.200,0.194,0.203,0.114,0.075,north-northwest,4.2,Yes
2023/06/15,22:20,0.142,0.128,0.201,0.193,0.205,0.113,0.075,north-northwest,4.3,Yes
2023/06/15,22:30,0.140,0.127,0.199,0.191,0.206,0.113,0.075,north-northwest,4.3,Yes
2023/06/15,22:40,0.142,0.128,0.201,0.193,0.204,0.112,0.074,north-northwest,4.7,Yes
2023/06/15,22:50,0.140,0.127,0.199,0.191,0.205,0.113,0.074,north-northwest,4.0,Yes
2023/06/15,23:00,0.140,0.128,0.200,0.192,0.202,0.112,0.075,north-northwest,4.3,Yes
2023/06/15,23:10,0.140,0.127,0.200,0.191,0.206,0.113,0.075,north-northwest,4.6,Yes
2023/06/15,23:20,0.140,0.128,0.200,0.191,0.204,0.113,0.075,northwest,4.4,Yes
2023/06/15,23:30,0.141,0.127,0.198,0.191,0.205,0.113,0.075,north-northwest,4.7,Yes
2023/06/15,23:40,0.140,0.129,0.198,0.191,0.206,0.114,0.075,north-northwest,4.7,Yes
2023/06/15,23:50,0.142,0.128,0.199,0.190,0.204,0.114,0.077,north-northwest,4.7,Yes
